This is the latest recevied weather packets stored in our database for station/object KC1DMA. If no packets are shown the sender has not sent any weather packets the latest 10 day(s).
| Time | Temp. | Humidity | Pressure | Rain* | Wind** | Luminosity | Snow |
|---|---|---|---|---|---|---|---|
| 1777829104 | 10° C | 45% | 1010.9 hPa | - | - | 451 W/m² | - |
| 1777828800 | 10° C | 45% | 1011 hPa | - | - | 359 W/m² | - |
| 1777828496 | 10° C | 45% | 1011.2 hPa | - | - | 349 W/m² | - |
| 1777828194 | 10.56° C | 44% | 1011.3 hPa | - | - | 384 W/m² | - |
| 1777827890 | 10° C | 45% | 1010.8 hPa | - | - | 415 W/m² | - |
| 1777827587 | 10° C | 44% | 1011 hPa | - | - | 476 W/m² | - |
| 1777827285 | 10.56° C | 46% | 1011.2 hPa | - | - | 729 W/m² | - |
| 1777826981 | 10.56° C | 45% | 1010.9 hPa | - | - | 630 W/m² | - |
| 1777826679 | 10.56° C | 42% | 1010.9 hPa | - | - | 963 W/m² | - |
| 1777826375 | 11.11° C | 40% | 1010.7 hPa | - | - | 919 W/m² | - |
| 1777826072 | 10.56° C | 41% | 1010.8 hPa | - | - | 876 W/m² | - |
| 1777825769 | 10° C | 46% | 1010.5 hPa | - | - | 873 W/m² | - |
| 1777825467 | 10° C | 43% | 1010.8 hPa | - | - | 865 W/m² | - |
| 1777825164 | 10° C | 47% | 1010.8 hPa | - | - | 872 W/m² | - |
| 1777824860 | 10° C | 46% | 1010.8 hPa | - | - | 553 W/m² | - |
| 1777824557 | 10° C | 52% | 1010.8 hPa | - | - | 973 W/m² | - |
| 1777824253 | 9.44° C | 52% | 1010.9 hPa | - | - | 916 W/m² | - |
| 1777823949 | 10° C | 52% | 1010.9 hPa | - | - | 887 W/m² | - |
| 1777823646 | 10° C | 50% | 1010.9 hPa | - | - | 930 W/m² | - |
| 1777823343 | 9.44° C | 50% | 1010.9 hPa | - | - | 911 W/m² | - |
| 1777823041 | 9.44° C | 50% | 1010.7 hPa | - | - | 963 W/m² | - |
| 1777822739 | 9.44° C | 52% | 1010.7 hPa | - | - | 247 W/m² | - |
| 1777822436 | 9.44° C | 51% | 1010.7 hPa | - | - | 343 W/m² | - |
| 1777822134 | 9.44° C | 50% | 1010.5 hPa | - | - | 330 W/m² | - |
| 1777821831 | 9.44° C | 48% | 1010.6 hPa | - | - | 235 W/m² | - |
* Rain since midnight (hover to see other rain measurements)
** Current wind speed in m/s (hover to see current wind gust speed)